Weather in Dolina

Russia / Saratov Oblast     51°08′46″N   47°25′05″E
temp.,
°C
wind,
m/s
gust,
m/s
humid.,
%
clouds,
%
prec.,
mm/h
press.,
hPa
HPBL,
m
7 march, sun
sun701:00−9n3394100 0.0 101258
04:00−12nnw229075 0.0 101321
07:00−11w228962 0.0 101421
10:00−10wnw599481 0.1 1015290
13:00−8w5108778 0.0 1016441
16:00−6wsw5108750 0.0 1015641
19:00−8ssw5128882 0.0 1013268
22:00−4ssw8168891 0.0 1011705
8 march, mon
mon801:00−4sw91782100 0.0 1008770
04:00−4sw101882100 0.0 1006793
07:00−4sw91687100 0.2 1005737
10:00−3sw9158999 0.2 1006664
13:00−1sw81394100 0.1 1007808
16:00−1sw91395100 0.6 1006930
19:00−1sw71489100 0.4 1006704
22:00−2wsw61395100 0.5 1007531
9 march, tue
tue901:00−5w349493 0.3 100862
04:00−8nw228994 0.3 100921
07:00−9nne2286100 0.0 100921
10:00−7ne2386100 0.0 1009122
13:00−6nne3595100 0.6 1008250
16:00−6nnw5693100 1.2 1008355
19:00−9wnw4993100 0.0 1009194
22:00−12wnw5109350 0.0 1011160
10 march, wed
wed1001:00−12wnw5109519 0.0 1012188
04:00−12nw599453 0.1 1013219
07:00−15nw6119278 0.0 1015267
10:00−16nw6109139 0.0 1018314
13:00−15nw699019 0.0 1019466
16:00−14nw698857 0.0 1020705
19:00−16nw51192100 0.0 1022368
22:00−19nw6129199 0.1 1024292
11 march, thu
thu1101:00−24nnw499327 0.0 1025138
04:00−26nw479314 0.0 102793
07:00−27nnw47930 0.0 102888
10:00−23nnw46910 0.0 1030175
13:00−20nw45900 0.0 1030242
16:00−18nw35910 0.0 1030243
19:00−21nw33930 0.0 103021
22:00−21wnw34930 0.0 103233